{"data":{"norad_id":68021,"epoch":"2026-09-20T02:14:38.546016Z","epoch_age_seconds":98119,"freshness":"FRESH","line1":"1 68021U 26040G   26263.09350169  .00025362  00000+0  78486-3 0  9994","line2":"2 68021  97.2855 210.4098 0002064  96.7415 263.4063 15.33461555 31289","mean_motion":15.33461555,"eccentricity":0.0002064,"inclination_deg":97.2855,"raan_deg":210.4098,"arg_perigee_deg":96.7415,"mean_anomaly_deg":263.4063,"bstar":0.00078486,"rev_number":3128,"period_min":93.905190860817,"perigee_km":464.08139346704,"apogee_km":466.90644431036,"semimajor_km":6843.6309188887,"source":"CELESTRAK","updated_at":"2026-09-20T09:00:43.742517Z"}}